EW5058 Weather Reports


Display with metric or nautical units.
time (UTC)temp
F
wind
direction
speed
MPH
gust
MPH
rain 1hr
in
rain 24hr
in
rain mn
in
humidity
%
barometer
mb
20260510164819 84 0.0 1.0 0.00 0.00 0.00 48 1013.7
20260510163819 83 180 2.0 4.0 0.00 0.00 0.00 44 1013.7
20260510162819 85 270 1.0 2.0 0.00 0.00 0.00 48 1013.7
20260510161818 84 0.0 1.0 0.00 0.00 0.00 49 1013.7
20260510160819 85 315 4.0 6.0 0.00 0.00 0.00 48 1013.7
20260510155819 83 315 1.0 2.0 0.00 0.00 0.00 52 1013.7
20260510154819 83 0.0 1.0 0.00 0.00 0.00 46 1013.7
20260510153819 80 0.0 1.0 0.00 0.00 0.00 52 1013.7
20260510152819 80 180 1.0 3.0 0.00 0.00 0.00 53 1013.6
20260510151818 79 0.0 1.0 0.00 0.00 0.00 58 1013.4
20260510150819 78 180 1.0 1.0 0.00 0.00 0.00 61 1013.4
20260510145818 79 0.0 1.0 0.00 0.00 0.00 58 1013.4
20260510144819 80 0.0 0.0 0.00 0.00 0.00 63 1013.2
20260510143819 78 0.0 0.0 0.00 0.00 0.00 57 1013.2
20260510142818 77 0.0 1.0 0.00 0.00 0.00 62 1013.1
20260510141819 77 338 2.0 3.0 0.00 0.00 0.00 61 1013.2
20260510140819 76 315 3.0 4.0 0.00 0.00 0.00 61 1013.2
20260510135819 74 0.0 1.0 0.00 0.00 0.00 66 1013.2
20260510134818 73 315 2.0 4.0 0.00 0.00 0.00 69 1013.1
20260510133859 71 315 2.0 3.0 0.00 0.00 0.00 71 1013.1
20260510132818 70 315 2.0 3.0 0.00 0.00 0.00 76 1013.4
20260510131838 68 315 2.0 3.0 0.00 0.00 0.00 79 1013.5
20260510130818 67 315 2.0 3.0 0.00 0.00 0.00 82 1013.4
20260510125818 66 338 2.0 4.0 0.00 0.00 0.00 86 1013.3
20260510124838 64 315 2.0 5.0 0.00 0.00 0.00 88 1013.3
20260510123818 64 338 1.0 4.0 0.00 0.00 0.00 89 1013.4
20260510122839 63 338 2.0 3.0 0.00 0.00 0.00 90 1013.2
20260510121818 62 0.0 0.0 0.00 0.00 0.00 92 1013.0
20260510120818 61 315 2.0 3.0 0.00 0.00 0.00 93 1012.8
20260510115839 60 0.0 0.0 0.00 0.00 0.00 93 1012.6
20260510114818 60 0.0 0.0 0.00 0.00 0.00 93 1012.5
20260510113838 59 315 1.0 1.0 0.00 0.00 0.00 94 1012.3
20260510112818 59 315 1.0 2.0 0.00 0.00 0.00 94 1012.2
20260510111818 58 0.0 0.0 0.00 0.00 0.00 94 1012.0
20260510110818 58 315 1.0 2.0 0.00 0.00 0.00 93 1012.0
20260510105820 58 0.0 1.0 0.00 0.00 0.00 93 1011.9
20260510104819 58 0.0 0.0 0.00 0.00 0.00 93 1011.8
20260510103818 58 0.0 0.0 0.00 0.00 0.00 93 1011.6
20260510102818 58 315 2.0 3.0 0.00 0.00 0.00 93 1011.5
20260510101820 58 315 1.0 2.0 0.00 0.00 0.00 93 1011.4
20260510100818 58 338 4.0 8.0 0.00 0.00 0.00 93 1011.3
20260510095818 58 315 3.0 5.0 0.00 0.00 0.00 93 1011.2
20260510094818 58 315 2.0 2.0 0.00 0.00 0.00 93 1011.1
20260510093838 58 0.0 0.0 0.00 0.00 0.00 92 1011.1
20260510092820 58 0.0 0.0 0.00 0.00 0.00 91 1011.0
20260510091818 59 0.0 0.0 0.00 0.00 0.00 92 1010.9
20260510090820 59 0.0 0.0 0.00 0.00 0.00 92 1010.7
20260510085820 59 0.0 0.0 0.00 0.00 0.00 91 1010.6
20260510084820 59 0.0 0.0 0.00 0.00 0.00 90 1010.6
20260510083820 60 0.0 0.0 0.00 0.00 0.00 90 1010.4
20260510082840 60 0.0 0.0 0.00 0.00 0.00 89 1010.3
20260510081820 61 0.0 0.0 0.00 0.00 0.00 88 1010.3
20260510080820 61 0.0 0.0 0.00 0.00 0.00 89 1010.2
20260510075839 61 0.0 1.0 0.00 0.00 0.00 89 1010.2
20260510074820 60 180 2.0 3.0 0.00 0.00 0.00 89 1010.1
20260510073820 60 0.0 0.0 0.00 0.00 0.00 89 1010.1
20260510072820 60 0.0 0.0 0.00 0.00 0.00 88 1010.0
20260510071820 61 0.0 2.0 0.00 0.00 0.00 88 1010.0
20260510070820 61 0.0 1.0 0.00 0.00 0.00 87 1010.1
20260510065818 61 0.0 0.0 0.00 0.00 0.00 87 1010.1
20260510064820 62 0.0 0.0 0.00 0.00 0.00 86 1010.0
20260510063820 62 180 1.0 2.0 0.00 0.00 0.00 86 1010.0
20260510062820 62 0.0 0.0 0.00 0.00 0.00 86 1010.0
20260510061820 62 0.0 0.0 0.00 0.00 0.00 85 1010.0
20260510060840 62 0.0 0.0 0.00 0.00 0.00 85 1010.1
20260510055820 62 0.0 0.0 0.00 0.00 0.00 85 1010.0
20260510054819 63 0.0 0.0 0.00 0.00 0.00 84 1010.1
20260510053819 63 0.0 0.0 0.00 0.00 0.00 84 1010.1
20260510052840 63 203 1.0 2.0 0.00 0.00 0.00 84 1010.2
20260510051820 63 180 1.0 2.0 0.00 0.00 0.00 83 1010.2
20260510050820 63 180 1.0 1.0 0.00 0.00 0.00 83 1010.2
20260510045819 63 0.0 0.0 0.00 0.00 0.00 83 1010.1
20260510044820 63 0.0 1.0 0.00 0.00 0.00 83 1010.1
20260510043820 63 0.0 0.0 0.00 0.00 0.00 83 1010.2
20260510042819 63 0.0 0.0 0.00 0.00 0.00 83 1010.1
20260510041820 63 0.0 1.0 0.00 0.00 0.00 83 1010.0
20260510040819 63 0.0 0.0 0.00 0.00 0.00 83 1010.0
20260510035919 63 180 1.0 1.0 0.00 0.00 0.00 82 1010.0
20260510034818 63 0.0 0.0 0.00 0.00 0.00 82 1010.0
20260510033818 62 0.0 0.0 0.00 0.00 0.00 82 1009.9
20260510032819 62 0.0 0.0 0.00 0.00 0.00 82 1009.9
20260510031818 62 0.0 0.0 0.00 0.00 0.00 83 1009.8
20260510030838 61 0.0 0.0 0.00 0.00 0.00 83 1009.7
20260510025818 61 0.0 0.0 0.00 0.00 0.00 83 1009.8
20260510024839 61 0.0 0.0 0.00 0.00 0.00 82 1009.8
20260510023818 61 0.0 0.0 0.00 0.00 0.00 82 1009.7
20260510022818 61 0.0 0.0 0.00 0.00 0.00 82 1009.6
20260510021818 61 0.0 0.0 0.00 0.00 0.00 82 1009.6
20260510020840 61 0.0 0.0 0.00 0.00 0.00 82 1009.5
20260510015818 61 0.0 0.0 0.00 0.00 0.00 81 1009.5
20260510014818 62 0.0 0.0 0.00 0.00 0.00 80 1009.4
20260510013819 62 0.0 0.0 0.00 0.00 0.00 80 1009.3
20260510012818 62 0.0 0.0 0.00 0.00 0.00 79 1009.3
20260510011818 63 0.0 0.0 0.00 0.00 0.00 79 1009.2
20260510010818 63 0.0 0.0 0.00 0.00 0.00 78 1009.2
20260510005818 64 0.0 0.0 0.00 0.00 0.00 77 1009.1
20260510004820 65 0.0 0.0 0.00 0.00 0.00 75 1009.1
20260510003838 65 0.0 0.0 0.00 0.00 0.00 74 1009.1
20260510002820 66 0.0 0.0 0.00 0.00 0.00 73 1009.0
20260510001818 67 0.0 0.0 0.00 0.00 0.00 71 1009.0
20260510000818 68 0.0 0.0 0.00 0.00 0.00 70 1008.9
20260509235818 69 0.0 0.0 0.00 0.00 0.00 69 1008.8
20260509234838 69 180 1.0 2.0 0.00 0.00 0.00 69 1008.8
20260509233818 70 0.0 1.0 0.00 0.00 0.00 68 1008.7
20260509232818 70 135 2.0 4.0 0.00 0.00 0.00 68 1008.7
20260509231840 71 180 1.0 2.0 0.00 0.00 0.00 68 1008.5
20260509230820 71 158 2.0 5.0 0.00 0.00 0.00 67 1008.5
20260509225820 71 158 2.0 4.0 0.00 0.00 0.00 66 1008.6
20260509224820 72 0.0 1.0 0.00 0.00 0.00 65 1008.5
20260509223820 72 158 2.0 5.0 0.00 0.00 0.00 64 1008.6
20260509222820 72 135 3.0 4.0 0.00 0.00 0.00 63 1008.6
20260509221820 72 180 2.0 3.0 0.00 0.00 0.00 63 1008.5
20260509220818 72 180 3.0 5.0 0.00 0.00 0.00 63 1008.6
20260509215818 72 158 3.0 6.0 0.00 0.00 0.00 63 1008.5
20260509214820 72 180 3.0 3.0 0.00 0.00 0.00 61 1008.4
20260509213820 72 180 2.0 3.0 0.00 0.00 0.00 60 1008.4
20260509212819 72 180 1.0 2.0 0.00 0.00 0.00 61 1008.4
20260509211820 72 158 3.0 5.0 0.00 0.00 0.00 61 1008.1
20260509210820 72 158 3.0 5.0 0.00 0.00 0.00 61 1008.3
20260509205820 72 180 2.0 4.0 0.00 0.00 0.00 63 1008.3
20260509204920 72 203 3.0 4.0 0.00 0.00 0.00 63 1008.3
20260509203820 72 158 2.0 5.0 0.00 0.00 0.00 62 1008.4
20260509202818 72 225 3.0 6.0 0.00 0.00 0.00 63 1008.4
20260509201840 72 180 3.0 5.0 0.00 0.00 0.00 66 1008.5
20260509200820 72 180 4.0 7.0 0.00 0.00 0.00 64 1008.5
20260509195859 72 180 4.0 8.0 0.00 0.00 0.00 63 1008.7
20260509194820 72 180 3.0 5.0 0.00 0.00 0.00 65 1008.8
20260509193820 71 180 4.0 6.0 0.00 0.00 0.00 67 1009.1
20260509192840 71 180 1.0 2.0 0.00 0.00 0.00 67 1009.3
20260509191820 70 180 2.0 3.0 0.00 0.00 0.00 66 1009.3
20260509190819 71 180 6.0 9.0 0.00 0.00 0.00 65 1009.7
20260509185820 72 180 2.0 6.0 0.00 0.00 0.00 65 1009.8
20260509184839 72 180 4.0 6.0 0.00 0.00 0.00 62 1009.8
20260509183820 72 180 1.0 2.0 0.00 0.00 0.00 64 1009.9
20260509182819 72 180 5.0 10.0 0.00 0.00 0.00 63 1009.9
20260509181820 72 203 3.0 6.0 0.00 0.00 0.00 65 1010.1
20260509180839 72 203 2.0 4.0 0.00 0.00 0.00 65 1010.3
20260509175820 71 158 4.0 5.0 0.00 0.00 0.00 64 1010.3
20260509174819 71 180 4.0 5.0 0.00 0.00 0.00 63 1010.3
20260509173819 72 180 4.0 7.0 0.00 0.00 0.00 65 1010.4
20260509172819 72 180 3.0 6.0 0.00 0.00 0.00 63 1010.4
20260509171818 73 135 4.0 10.0 0.00 0.00 0.00 62 1010.4
20260509170819 74 180 5.0 10.0 0.00 0.00 0.00 57 1010.4
20260509165819 74 203 4.0 7.0 0.00 0.00 0.00 57 1010.5